[[{"header":{"parameterUnit":"m.s-1","parameterCategory":2,"la1":30.2991,"la2":30.254,"lo1":-89.0895,"lo2":-89.0444,"dy":0.0017,"dx":0.0017,"nx":28,"ny":28,"refTime":"2024-07-07T03:00:00:Z","depth":"0","parameterNumber":2,"parameterNumberName":"U-component_of_CURRENTS"},"data":[0,0,0,0,0,0,0,0,0,0,0,0,0,0,0,0,0,0,0,0,0,0,0,0,0,0,0,0,0,0,0,0,0,0,0,0,0,0,0,0,0,0,0,0,0,0,0,0,0,0,0,0,0,0,0,0,0,0,-0.3928,-0.3928,0,-0.3885,-0.3884,-0.3884,-0.3773,-0.377,-0.3768,-0.3766,-0.3656,-0.3655,-0.3655,0,0,0,0,0,0,0,0,0,0,0,0,0,-0.3962,-0.3962,-0.3928,-0.3927,-0.3927,-0.3885,-0.3884,-0.3884,-0.3773,-0.377,-0.3768,-0.3765,-0.3656,-0.3655,-0.3655,0,0,0,0,0,0,0,0,0,0,0,0,0,-0.3936,-0.3962,-0.3928,-0.3867,-0.3861,-0.3885,-0.3884,-0.3884,-0.3774,-0.377,-0.3767,-0.3764,-0.3657,-0.3656,-0.3654,-0.3717,0,0,-0.3651,-0.365,0,0,0,0,0,0,0,0,-0.3937,-0.3934,-0.3877,-0.3871,-0.3865,-0.3831,-0.3856,-0.3825,-0.3775,-0.3807,-0.3766,-0.3762,-0.3711,-0.3706,-0.3705,-0.3712,-0.3707,-0.3651,-0.365,-0.365,-0.3649,0,0,0,0,0,0,0,-0.3939,-0.3936,-0.391,-0.3876,-0.3869,-0.3858,-0.385,-0.385,-0.3777,-0.3803,-0.3795,-0.3793,-0.3707,-0.3707,-0.3702,-0.3705,-0.3651,-0.365,-0.3649,-0.3649,-0.369,-0.3691,0,0,0,0,0,0,-0.3947,-0.3938,-0.3912,-0.3909,-0.3894,-0.386,-0.3851,-0.3845,-0.3778,-0.3766,-0.3796,-0.3788,-0.3711,-0.3703,-0.3697,-0.373,-0.365,-0.3649,-0.3648,-0.3688,-0.369,-0.3692,0,0,0,0,0,0,-0.3948,-0.3945,-0.3913,-0.3923,-0.3918,-0.3863,-0.3857,-0.3846,-0.3827,-0.3773,-0.3758,-0.3786,-0.3707,-0.3699,-0.3684,-0.3725,-0.3648,-0.3647,-0.3686,-0.3689,-0.3691,-0.3818,0,0,0,0,0,0,-0.3949,-0.3946,-0.3946,-0.3923,-0.3918,-0.392,-0.386,-0.3848,-0.3832,-0.3821,-0.3761,-0.3748,-0.3704,-0.3686,-0.3683,-0.3722,-0.3646,-0.3684,-0.3687,-0.369,-0.3811,-0.3824,-0.3836,0,0,0,0,0,-0.395,-0.396,-0.3946,-0.3943,-0.3919,-0.3922,-0.3918,-0.3867,-0.3835,-0.3836,-0.3792,-0.3749,-0.3704,-0.3687,-0.3682,-0.3723,-0.3682,-0.3686,-0.369,-0.3806,-0.3822,-0.3835,0,0,0,0,0,0,-0.3979,-0.3949,-0.3933,-0.3934,-0.3928,-0.3902,-0.3897,-0.3878,-0.3849,-0.3833,-0.3774,-0.376,-0.3768,-0.3729,-0.3711,-0.3744,-0.3687,-0.369,-0.3776,-0.3791,-0.3803,-0.3772,-0.3645,0,0,0,0,0,-0.3991,-0.398,-0.3965,-0.3967,-0.3962,-0.3937,-0.3932,-0.3909,-0.3883,-0.3865,-0.3825,-0.3791,-0.3791,-0.3773,-0.3761,-0.378,-0.3715,-0.3802,-0.3814,-0.3825,-0.3796,-0.3741,-0.3745,-0.3705,-0.3705,-0.3705,0,0,-0.4003,-0.3986,-0.398,-0.3972,-0.3957,-0.3976,-0.3923,-0.3923,-0.394,-0.3863,-0.386,-0.3839,-0.3807,-0.3826,-0.3825,-0.379,-0.3811,-0.383,-0.3839,-0.3804,-0.3745,-0.3749,-0.3751,-0.3708,-0.3707,-0.3707,0,0,-0.4037,-0.4009,-0.4019,-0.4022,-0.4014,-0.4002,-0.4006,-0.3988,-0.3971,-0.3989,-0.3941,-0.3933,-0.3923,-0.3903,-0.3897,-0.3971,-0.3885,-0.3975,-0.4002,-0.3951,-0.3952,-0.3953,-0.3909,-0.3905,-0.3971,-0.3971,-0.3972,0,-0.4053,-0.4057,-0.4027,-0.4051,-0.4048,-0.4018,-0.4042,-0.4048,-0.4029,-0.402,-0.3996,-0.3971,-0.3963,-0.3968,-0.3998,-0.4,-0.3943,-0.3954,-0.3965,-0.3964,-0.3962,-0.3916,-0.3909,-0.3978,-0.3977,-0.3977,-0.3976,0,-0.4106,-0.4107,-0.4114,-0.4123,-0.413,-0.4138,-0.4143,-0.4149,-0.4132,-0.4123,-0.4115,-0.4089,-0.4055,-0.4081,-0.4068,-0.4064,-0.4021,-0.3996,-0.3925,-0.3973,-0.3923,-0.3914,-0.3987,-0.3985,-0.3983,-0.3982,0,0,-0.4118,-0.4142,-0.4141,-0.414,-0.4158,-0.4159,-0.4206,-0.4212,-0.4206,-0.4205,-0.4178,-0.4211,-0.416,-0.4147,-0.4121,-0.4085,-0.4073,-0.4036,-0.4031,-0.3987,-0.3946,-0.3629,-0.3588,-0.4037,-0.4035,-0.4034,-0.3927,0,-0.415,-0.4191,-0.4204,-0.423,-0.4231,-0.4234,-0.4266,-0.428,-0.4266,-0.424,-0.4218,-0.419,-0.4197,-0.4166,-0.4143,-0.408,-0.4047,-0.4103,-0.3907,-0.3901,-0.3608,-0.3565,-0.3429,-0.3293,-0.3917,-0.3916,-0.3915,0,-0.4173,-0.4191,-0.4227,-0.4232,-0.4235,-0.4263,-0.4256,-0.4284,-0.4275,-0.4265,-0.4233,-0.4189,-0.416,-0.4141,-0.405,-0.4075,-0.402,-0.3969,-0.3963,-0.3598,-0.3562,-0.3338,-0.3252,-0.3267,-0.3899,-0.39,-0.3902,0,-0.4134,-0.4182,-0.4196,-0.4206,-0.4241,-0.4255,-0.4267,-0.4279,-0.4269,-0.425,-0.4214,-0.4176,-0.4116,-0.4055,-0.3937,-0.4003,-0.3776,-0.3866,-0.3531,-0.3511,-0.3313,-0.3273,-0.3196,-0.3781,-0.3781,-0.3781,-0.3782,0,-0.4117,-0.4115,-0.4176,-0.4179,-0.4182,-0.4224,-0.421,-0.4231,-0.4222,-0.4187,-0.4195,-0.4132,-0.4081,-0.3942,-0.3892,-0.3609,-0.3738,-0.3486,-0.343,-0.3354,-0.332,-0.3252,-0.3316,-0.3777,-0.3778,-0.3779,-0.378,0,-0.4029,-0.4087,-0.4087,-0.4141,-0.4154,-0.4145,-0.416,-0.4141,-0.4164,-0.4109,-0.4096,-0.4067,-0.3866,-0.3724,-0.3579,-0.3489,-0.3215,-0.3174,-0.3063,-0.299,-0.2693,-0.2768,-0.2544,-0.2476,-0.284,-0.2831,-0.2823,0,-0.3972,-0.3969,-0.4028,-0.4032,-0.4048,-0.4053,-0.4048,-0.4094,-0.4069,-0.4059,-0.4009,-0.3825,-0.3612,-0.3221,-0.3,-0.2723,-0.2827,-0.2485,-0.2577,-0.2581,-0.2632,-0.2728,-0.2701,-0.2431,-0.2421,-0.2413,-0.2406,0,-0.3837,-0.3868,-0.3886,-0.3895,-0.3902,-0.3896,-0.3895,-0.3865,-0.3906,-0.3829,-0.3662,-0.3486,-0.3107,-0.2696,-0.2317,-0.2211,-0.2417,-0.2297,-0.2361,-0.2295,-0.234,-0.2279,-0.2633,-0.2332,-0.2339,-0.2344,-0.2348,-0.2351,-0.3711,-0.3695,-0.3725,-0.37,-0.3725,-0.3682,-0.3576,-0.3568,-0.3455,-0.3208,-0.3234,-0.2749,-0.246,-0.1871,-0.1789,-0.1605,-0.179,-0.1635,-0.1734,-0.1837,-0.1712,-0.1836,-0.1408,-0.141,-0.1412,-0.1413,-0.1415,0,-0.351,-0.3513,-0.3509,-0.3491,-0.3426,-0.3493,-0.3409,-0.3233,-0.2982,-0.2702,-0.2385,-0.1724,-0.1455,-0.1307,-0.1198,-0.1143,-0.1248,-0.1154,-0.1395,-0.1402,-0.1558,-0.1477,-0.0966,-0.0966,-0.0966,-0.0966,-0.0966,-0.0966,-0.3407,-0.3316,-0.3304,-0.3141,-0.3142,-0.2933,-0.2811,-0.2561,-0.2267,-0.1612,-0.1063,-0.0741,-0.0744,-0.0982,-0.1072,-0.1045,-0.1147,-0.1017,-0.1117,-0.1393,-0.1453,-0.1511,-0.1451,-0.0943,-0.0943,-0.0949,-0.0949,-0.095]},{"header":{"parameterUnit":"m.s-1","parameterCategory":2,"la1":30.2991,"la2":30.254,"lo1":-89.0895,"lo2":-89.0444,"dy":0.0017,"dx":0.0017,"nx":28,"ny":28,"refTime":"2024-07-07T03:00:00:Z","depth":"0","parameterNumber":3,"parameterNumberName":"V-component_of_CURRENTS"},"data":[0,0,0,0,0,0,0,0,0,0,0,0,0,0,0,0,0,0,0,0,0,0,0,0,0,0,0,0,0,0,0,0,0,0,0,0,0,0,0,0,0,0,0,0,0,0,0,0,0,0,0,0,0,0,0,0,0,0,-0.1154,-0.1153,0,-0.1048,-0.1047,-0.1045,-0.0904,-0.0902,-0.0899,-0.0897,-0.0691,-0.0688,-0.0685,0,0,0,0,0,0,0,0,0,0,0,0,0,-0.1198,-0.1198,-0.1154,-0.1153,-0.1152,-0.1048,-0.1047,-0.1045,-0.0904,-0.0901,-0.0899,-0.0896,-0.0692,-0.0688,-0.0684,0,0,0,0,0,0,0,0,0,0,0,0,0,-0.1144,-0.1198,-0.1154,-0.1069,-0.1061,-0.1048,-0.1047,-0.1045,-0.0905,-0.0901,-0.0898,-0.0895,-0.0694,-0.0689,-0.0684,-0.0722,0,0,-0.0668,-0.0666,0,0,0,0,0,0,0,0,-0.1147,-0.1142,-0.1083,-0.1075,-0.1065,-0.0986,-0.0986,-0.0932,-0.0906,-0.0963,-0.0897,-0.0893,-0.0784,-0.0771,-0.0759,-0.0712,-0.0703,-0.0668,-0.0665,-0.0663,-0.0661,0,0,0,0,0,0,0,-0.1151,-0.1146,-0.1111,-0.1082,-0.1071,-0.1024,-0.1013,-0.0976,-0.0892,-0.0958,-0.0948,-0.0938,-0.0777,-0.0765,-0.0753,-0.07,-0.0668,-0.0664,-0.0661,-0.0659,-0.0613,-0.0615,0,0,0,0,0,0,-0.1171,-0.115,-0.1115,-0.1108,-0.1099,-0.1026,-0.1013,-0.1015,-0.0894,-0.0873,-0.0941,-0.0932,-0.0775,-0.0759,-0.0745,-0.0721,-0.0663,-0.0658,-0.0655,-0.0611,-0.0614,-0.0616,0,0,0,0,0,0,-0.1173,-0.117,-0.1119,-0.1126,-0.1116,-0.1029,-0.1031,-0.1014,-0.0979,-0.0882,-0.0858,-0.092,-0.0771,-0.0752,-0.0713,-0.0714,-0.0656,-0.0651,-0.0609,-0.0612,-0.0615,-0.0713,0,0,0,0,0,0,-0.1175,-0.1172,-0.1181,-0.1128,-0.1117,-0.1112,-0.1034,-0.1015,-0.098,-0.0966,-0.0858,-0.0836,-0.0767,-0.0721,-0.0708,-0.0706,-0.0647,-0.0607,-0.0611,-0.0614,-0.0707,-0.0719,-0.0728,0,0,0,0,0,-0.1177,-0.12,-0.1183,-0.1178,-0.1133,-0.1113,-0.1103,-0.1028,-0.0983,-0.0981,-0.0912,-0.0838,-0.0732,-0.0719,-0.0703,-0.07,-0.0605,-0.061,-0.0613,-0.0703,-0.0716,-0.0728,0,0,0,0,0,0,-0.122,-0.1187,-0.1166,-0.1177,-0.115,-0.1089,-0.1083,-0.1037,-0.0985,-0.0965,-0.0867,-0.0843,-0.0802,-0.0757,-0.0745,-0.0701,-0.0655,-0.0656,-0.0729,-0.0741,-0.0751,-0.0775,-0.0643,0,0,0,0,0,-0.1242,-0.125,-0.1211,-0.1221,-0.1212,-0.1153,-0.1134,-0.1088,-0.1036,-0.1007,-0.0936,-0.0868,-0.0816,-0.0782,-0.0731,-0.072,-0.066,-0.0709,-0.0719,-0.0728,-0.074,-0.0718,-0.0727,-0.0629,-0.0629,-0.0629,0,0,-0.1262,-0.1246,-0.1249,-0.1232,-0.1203,-0.1204,-0.1132,-0.1112,-0.1101,-0.0997,-0.0962,-0.09,-0.0823,-0.0795,-0.0774,-0.0751,-0.071,-0.0733,-0.0741,-0.0748,-0.0723,-0.0732,-0.0741,-0.0632,-0.0631,-0.0631,0,0,-0.1313,-0.1296,-0.132,-0.1307,-0.1277,-0.1242,-0.124,-0.1186,-0.1147,-0.1124,-0.1039,-0.0993,-0.0918,-0.0864,-0.0826,-0.0875,-0.0766,-0.085,-0.0917,-0.0897,-0.0904,-0.0911,-0.0779,-0.0772,-0.0857,-0.0857,-0.0857,0,-0.1337,-0.1363,-0.1325,-0.1344,-0.1338,-0.1265,-0.1286,-0.1248,-0.1185,-0.1173,-0.1123,-0.1036,-0.0952,-0.0928,-0.0924,-0.0894,-0.0834,-0.087,-0.091,-0.0915,-0.092,-0.0783,-0.0775,-0.0862,-0.0862,-0.0861,-0.0861,0,-0.1402,-0.1421,-0.1436,-0.1436,-0.1427,-0.1434,-0.1383,-0.137,-0.1315,-0.1271,-0.1238,-0.115,-0.1097,-0.106,-0.0992,-0.0988,-0.0912,-0.0923,-0.0876,-0.0935,-0.0787,-0.0777,-0.087,-0.0868,-0.0866,-0.0865,0,0,-0.1447,-0.1478,-0.1481,-0.1513,-0.1476,-0.1487,-0.1475,-0.1457,-0.1457,-0.1395,-0.139,-0.1299,-0.1247,-0.1204,-0.1124,-0.1094,-0.1025,-0.1022,-0.1019,-0.0885,-0.0898,-0.069,-0.0657,-0.1052,-0.1053,-0.1054,-0.0755,0,-0.1505,-0.159,-0.1566,-0.1629,-0.1668,-0.1612,-0.1614,-0.1586,-0.1532,-0.1507,-0.1425,-0.1386,-0.1302,-0.1273,-0.1232,-0.1096,-0.1015,-0.1099,-0.0866,-0.0856,-0.0663,-0.0647,-0.0554,-0.027,-0.0744,-0.0742,-0.0741,0,-0.1564,-0.162,-0.1708,-0.1756,-0.1764,-0.1779,-0.1784,-0.1774,-0.1711,-0.1668,-0.1622,-0.1538,-0.1461,-0.1391,-0.12,-0.1261,-0.1077,-0.0963,-0.095,-0.0723,-0.0633,-0.0302,-0.0232,-0.01,-0.0724,-0.0726,-0.0727,0,-0.1643,-0.1711,-0.1797,-0.1812,-0.1849,-0.1874,-0.1873,-0.1831,-0.1828,-0.1768,-0.1744,-0.1657,-0.1587,-0.1436,-0.1139,-0.1189,-0.0885,-0.0931,-0.0554,-0.0533,-0.0389,-0.0355,-0.0166,-0.0777,-0.0778,-0.0779,-0.078,0,-0.1716,-0.1783,-0.1851,-0.1904,-0.1995,-0.1973,-0.2024,-0.2006,-0.1963,-0.1939,-0.1834,-0.1754,-0.1604,-0.1389,-0.1159,-0.0775,-0.0888,-0.0537,-0.0458,-0.0409,-0.0382,-0.0209,-0.0193,-0.0767,-0.077,-0.0772,-0.0774,0,-0.1787,-0.1831,-0.1943,-0.2019,-0.2041,-0.2107,-0.2126,-0.2155,-0.2092,-0.2052,-0.2036,-0.184,-0.1531,-0.1275,-0.0956,-0.0759,-0.0299,-0.026,-0.0141,-0.0054,0.035,0.0356,0.0666,0.0792,0.0137,0.0144,0.0149,0,-0.1826,-0.1902,-0.2036,-0.2107,-0.2143,-0.2219,-0.226,-0.2231,-0.2215,-0.2053,-0.2013,-0.1726,-0.1395,-0.0812,-0.0451,0.0014,0.0072,0.0343,0.024,0.0423,0.0485,0.0471,0.0549,0.0429,0.0437,0.0443,0.0447,0,-0.1909,-0.1967,-0.2072,-0.2207,-0.2289,-0.2361,-0.2382,-0.2365,-0.2276,-0.211,-0.1788,-0.1504,-0.0957,-0.037,0.0179,0.0416,0.0448,0.0486,0.0593,0.0681,0.0753,0.0897,0.0252,0.0502,0.0496,0.0492,0.049,0.0487,-0.1962,-0.2055,-0.2185,-0.2298,-0.24,-0.2421,-0.2352,-0.2269,-0.2087,-0.1629,-0.1477,-0.077,-0.0302,0.0518,0.0714,0.1114,0.0986,0.1192,0.1185,0.1156,0.1262,0.0814,0.1184,0.1183,0.1181,0.118,0.1179,0,-0.1998,-0.2107,-0.2245,-0.2366,-0.2434,-0.2462,-0.2366,-0.2133,-0.1743,-0.1216,-0.0691,0.0288,0.0831,0.1193,0.1625,0.178,0.1733,0.1819,0.1745,0.1789,0.1339,0.1332,0.1848,0.1848,0.1848,0.1848,0.1847,0.1847,-0.2022,-0.2146,-0.2211,-0.2324,-0.239,-0.2278,-0.2136,-0.169,-0.1202,-0.0164,0.0666,0.1241,0.1626,0.1927,0.2189,0.2209,0.2305,0.2313,0.2362,0.1952,0.1888,0.1826,0.1824,0.2434,0.2435,0.2807,0.281,0.2813]}],[{"header":{"parameterUnit":"m.s-1","parameterCategory":2,"la1":30.2991,"la2":30.254,"lo1":-89.0895,"lo2":-89.0444,"dy":0.0017,"dx":0.0017,"nx":28,"ny":28,"refTime":"2024-07-07T03:00:00:Z","depth":"2","parameterNumber":2,"parameterNumberName":"U-component_of_CURRENTS"},"data":[0,0,0,0,0,0,0,0,0,0,0,0,0,0,0,0,0,0,0,0,0,0,0,0,0,0,0,0,0,0,0,0,0,0,0,0,0,0,0,0,0,0,0,0,0,0,0,0,0,0,0,0,0,0,0,0,0,0,-0.2393,-0.2394,0,-0.2541,-0.2544,-0.2547,-0.2703,-0.2704,-0.2705,-0.2706,-0.2729,-0.2728,-0.2728,0,0,0,0,0,0,0,0,0,0,0,0,0,-0.2325,-0.2326,-0.2393,-0.2394,-0.2395,-0.2541,-0.2544,-0.2547,-0.2702,-0.2704,-0.2705,-0.2706,-0.2729,-0.2728,-0.2728,0,0,0,0,0,0,0,0,0,0,0,0,0,-0.2413,-0.2327,-0.2393,-0.2481,-0.2489,-0.254,-0.2544,-0.2548,-0.2702,-0.2704,-0.2705,-0.2707,-0.2729,-0.2728,-0.2728,-0.2692,0,0,-0.2726,-0.2726,0,0,0,0,0,0,0,0,-0.2408,-0.2417,-0.2467,-0.2475,-0.2484,-0.2594,-0.2528,-0.2586,-0.2702,-0.2634,-0.2706,-0.2708,-0.2663,-0.2668,-0.2711,-0.2693,-0.2694,-0.2726,-0.2726,-0.2725,-0.2725,0,0,0,0,0,0,0,-0.2402,-0.2412,-0.2464,-0.2468,-0.2478,-0.2539,-0.2554,-0.2542,-0.2645,-0.264,-0.2649,-0.2645,-0.2669,-0.2712,-0.2712,-0.2695,-0.2726,-0.2725,-0.2725,-0.2725,-0.2681,-0.268,0,0,0,0,0,0,-0.2353,-0.2406,-0.2459,-0.2468,-0.2436,-0.2538,-0.2555,-0.2567,-0.2648,-0.2659,-0.2644,-0.2652,-0.2712,-0.2713,-0.2713,-0.265,-0.2725,-0.2725,-0.2724,-0.2682,-0.2681,-0.268,0,0,0,0,0,0,-0.2351,-0.2357,-0.2453,-0.243,-0.2445,-0.2535,-0.2549,-0.2569,-0.2613,-0.265,-0.2662,-0.2665,-0.2713,-0.2714,-0.2687,-0.2652,-0.2724,-0.2724,-0.2683,-0.2682,-0.2681,-0.2538,0,0,0,0,0,0,-0.2349,-0.2356,-0.235,-0.2426,-0.2444,-0.245,-0.2547,-0.257,-0.2602,-0.2615,-0.2671,-0.2676,-0.2715,-0.2687,-0.2686,-0.2653,-0.2724,-0.2684,-0.2682,-0.2681,-0.2544,-0.2532,-0.2522,0,0,0,0,0,-0.2347,-0.2341,-0.235,-0.2355,-0.2433,-0.2446,-0.2461,-0.2541,-0.2601,-0.2594,-0.264,-0.2675,-0.2679,-0.2685,-0.2684,-0.265,-0.2685,-0.2683,-0.2681,-0.2548,-0.2534,-0.2522,0,0,0,0,0,0,-0.2325,-0.2356,-0.2369,-0.2376,-0.2383,-0.2467,-0.2488,-0.2526,-0.2567,-0.2596,-0.2642,-0.2647,-0.2615,-0.2652,-0.2658,-0.264,-0.2695,-0.2693,-0.2595,-0.2582,-0.2571,-0.2611,-0.2723,0,0,0,0,0,-0.2303,-0.2303,-0.2328,-0.2328,-0.234,-0.2408,-0.2428,-0.2471,-0.2512,-0.2538,-0.2586,-0.2625,-0.2608,-0.2608,-0.262,-0.2589,-0.2636,-0.2578,-0.2567,-0.2558,-0.2593,-0.2627,-0.2622,-0.2674,-0.2674,-0.2674,0,0,-0.2284,-0.2308,-0.2303,-0.232,-0.2362,-0.2368,-0.243,-0.2456,-0.2462,-0.2523,-0.2572,-0.2578,-0.259,-0.2568,-0.2559,-0.2591,-0.2554,-0.2555,-0.2546,-0.2588,-0.2625,-0.262,-0.2616,-0.2673,-0.2673,-0.2673,0,0,-0.2257,-0.2282,-0.227,-0.2275,-0.23,-0.2341,-0.2333,-0.2407,-0.2442,-0.2433,-0.2492,-0.2478,-0.2485,-0.2498,-0.2492,-0.2425,-0.2489,-0.2434,-0.241,-0.244,-0.2436,-0.2434,-0.2424,-0.2422,-0.2435,-0.2435,-0.2434,0,-0.2234,-0.2236,-0.2262,-0.226,-0.2275,-0.232,-0.232,-0.2342,-0.2397,-0.2421,-0.2427,-0.2464,-0.2451,-0.2425,-0.2404,-0.2397,-0.243,-0.2444,-0.2425,-0.2424,-0.2424,-0.2415,-0.2414,-0.2428,-0.2428,-0.2429,-0.243,0,-0.2188,-0.2199,-0.2204,-0.2218,-0.2228,-0.2235,-0.2259,-0.2289,-0.2328,-0.2355,-0.2351,-0.2345,-0.2379,-0.2346,-0.234,-0.2336,-0.2359,-0.2394,-0.2452,-0.241,-0.2402,-0.2404,-0.2417,-0.242,-0.2422,-0.2424,0,0,-0.2127,-0.2162,-0.2164,-0.2184,-0.2216,-0.2228,-0.2237,-0.226,-0.2294,-0.2297,-0.233,-0.2266,-0.2304,-0.2304,-0.2305,-0.2315,-0.2279,-0.2355,-0.236,-0.2335,-0.2331,-0.2179,-0.2168,-0.2321,-0.2323,-0.2323,-0.2302,0,-0.2091,-0.2091,-0.2116,-0.213,-0.2149,-0.2198,-0.2213,-0.2237,-0.2261,-0.2303,-0.228,-0.2293,-0.2271,-0.228,-0.2279,-0.2305,-0.2292,-0.2281,-0.239,-0.2392,-0.2254,-0.2168,-0.2003,-0.1958,-0.2305,-0.2306,-0.2306,0,-0.2035,-0.2059,-0.2057,-0.2136,-0.2151,-0.2154,-0.2229,-0.2238,-0.2278,-0.2304,-0.2316,-0.2328,-0.2319,-0.2312,-0.2326,-0.2332,-0.2324,-0.2328,-0.2328,-0.2256,-0.2246,-0.2073,-0.1951,-0.2311,-0.231,-0.231,-0.231,0,-0.1994,-0.203,-0.204,-0.2051,-0.212,-0.2142,-0.2183,-0.2237,-0.227,-0.231,-0.234,-0.2354,-0.2354,-0.2374,-0.2323,-0.2359,-0.2332,-0.2386,-0.2233,-0.2222,-0.2141,-0.2119,-0.2395,-0.2395,-0.2395,-0.2395,-0.2395,0,-0.1953,-0.1967,-0.202,-0.2023,-0.2063,-0.2119,-0.2168,-0.2213,-0.228,-0.2293,-0.2337,-0.2329,-0.2379,-0.235,-0.2338,-0.2249,-0.2334,-0.2216,-0.2206,-0.2076,-0.205,-0.2432,-0.2437,-0.2394,-0.2395,-0.2395,-0.2395,0,-0.189,-0.192,-0.1948,-0.2017,-0.2037,-0.206,-0.2157,-0.2187,-0.2263,-0.2279,-0.2291,-0.2329,-0.2283,-0.2274,-0.2275,-0.2234,-0.219,-0.2131,-0.1937,-0.1903,-0.2071,-0.2069,-0.2021,-0.2015,-0.2011,-0.2007,-0.2003,0,-0.1851,-0.1852,-0.192,-0.1932,-0.1953,-0.2007,-0.204,-0.2151,-0.2171,-0.2235,-0.2214,-0.2206,-0.2136,-0.2063,-0.1979,-0.1909,-0.2019,-0.1735,-0.1766,-0.2037,-0.2034,-0.2039,-0.2043,-0.1589,-0.1583,-0.1578,-0.1574,0,-0.1785,-0.1807,-0.1825,-0.1845,-0.187,-0.1915,-0.1958,-0.1984,-0.207,-0.2092,-0.206,-0.2023,-0.1923,-0.1756,-0.1645,-0.1592,-0.1742,-0.1624,-0.1969,-0.1691,-0.1624,-0.1622,-0.1642,-0.1527,-0.1531,-0.1535,-0.1537,-0.1539,-0.1725,-0.1721,-0.1735,-0.1741,-0.1773,-0.1771,-0.174,-0.1791,-0.1799,-0.1775,-0.1842,-0.1741,-0.1698,-0.1445,-0.1331,-0.1249,-0.1397,-0.1383,-0.1403,-0.1428,-0.1363,-0.1289,-0.1116,-0.1118,-0.112,-0.1122,-0.1123,0,-0.1637,-0.1631,-0.163,-0.1621,-0.1587,-0.1644,-0.1634,-0.1566,-0.1491,-0.1537,-0.151,-0.133,-0.1202,-0.1161,-0.0952,-0.0908,-0.0946,-0.0888,-0.0958,-0.1002,-0.1042,-0.0963,-0.0607,-0.0606,-0.0605,-0.0604,0,0,-0.159,-0.1547,-0.1536,-0.1426,-0.1405,-0.1282,-0.123,-0.1155,-0.1135,-0.1074,-0.1051,-0.1176,-0.1144,-0.091,-0.082,-0.0681,-0.0848,-0.0639,-0.1047,-0.1174,-0.1213,-0.1306,-0.1229,0,0,0,0,0]},{"header":{"parameterUnit":"m.s-1","parameterCategory":2,"la1":30.2991,"la2":30.254,"lo1":-89.0895,"lo2":-89.0444,"dy":0.0017,"dx":0.0017,"nx":28,"ny":28,"refTime":"2024-07-07T03:00:00:Z","depth":"2","parameterNumber":3,"parameterNumberName":"V-component_of_CURRENTS"},"data":[0,0,0,0,0,0,0,0,0,0,0,0,0,0,0,0,0,0,0,0,0,0,0,0,0,0,0,0,0,0,0,0,0,0,0,0,0,0,0,0,0,0,0,0,0,0,0,0,0,0,0,0,0,0,0,0,0,0,-0.0437,-0.0436,0,-0.0283,-0.0281,-0.0278,-0.0159,-0.0159,-0.0158,-0.0158,0.0124,0.0131,0.0138,0,0,0,0,0,0,0,0,0,0,0,0,0,-0.0535,-0.0533,-0.0437,-0.0436,-0.0435,-0.0284,-0.0281,-0.0278,-0.0159,-0.0159,-0.0158,-0.0158,0.0122,0.013,0.0139,0,0,0,0,0,0,0,0,0,0,0,0,0,-0.0441,-0.0533,-0.0437,-0.0363,-0.0355,-0.0284,-0.0281,-0.0277,-0.0159,-0.0159,-0.0158,-0.0158,0.0119,0.0129,0.014,0.0192,0,0,0.0172,0.0177,0,0,0,0,0,0,0,0,-0.0446,-0.0436,-0.0375,-0.0368,-0.0359,-0.0246,-0.0212,-0.0116,-0.016,-0.0226,-0.0158,-0.0157,0.0006,0.0026,0.0063,0.0206,0.0218,0.0173,0.018,0.0184,0.0187,0,0,0,0,0,0,0,-0.0453,-0.0442,-0.0368,-0.0374,-0.0364,-0.0306,-0.0292,-0.0193,-0.0107,-0.022,-0.0213,-0.0208,0.0013,0.0052,0.0071,0.0222,0.0173,0.0182,0.0189,0.0193,0.0508,0.0509,0,0,0,0,0,0,-0.0493,-0.0449,-0.0373,-0.0364,-0.0411,-0.0306,-0.0289,-0.0277,-0.011,-0.0088,-0.0209,-0.0203,0.0034,0.0058,0.0081,0.0141,0.0184,0.0194,0.02,0.0506,0.0508,0.051,0,0,0,0,0,0,-0.0495,-0.0487,-0.038,-0.0409,-0.0393,-0.0306,-0.0292,-0.0275,-0.0237,-0.0105,-0.0078,-0.0192,0.0035,0.0066,0.0155,0.0153,0.0199,0.0209,0.0503,0.0506,0.0509,0.0268,0,0,0,0,0,0,-0.0499,-0.0489,-0.0495,-0.0412,-0.0393,-0.0355,-0.0293,-0.0272,-0.0239,-0.023,-0.0081,-0.0054,0.0038,0.0138,0.0166,0.0168,0.0217,0.0501,0.0505,0.0508,0.0274,0.0263,0.0253,0,0,0,0,0,-0.0502,-0.0507,-0.0495,-0.0487,-0.0403,-0.0356,-0.034,-0.0271,-0.024,-0.0232,-0.0135,-0.0059,0.0184,0.0147,0.0179,0.0185,0.0499,0.0504,0.0508,0.0278,0.0265,0.0253,0,0,0,0,0,0,-0.0542,-0.0494,-0.0479,-0.0467,-0.043,-0.0339,-0.0323,-0.0283,-0.0199,-0.0178,-0.0058,-0.0024,0.0053,0.0169,0.0125,0.0299,0.0365,0.0376,0.018,0.0169,0.0159,0.0154,0.0226,0,0,0,0,0,-0.0563,-0.0559,-0.0504,-0.0499,-0.0481,-0.0408,-0.0381,-0.0334,-0.0254,-0.0216,-0.0114,0.0013,0.01,0.0167,0.0271,0.0357,0.0439,0.04,0.0389,0.0378,0.0405,0.0485,0.0481,0.0525,0.0525,0.0525,0,0,-0.0576,-0.0554,-0.0549,-0.051,-0.0466,-0.0436,-0.0387,-0.0347,-0.0314,-0.0196,-0.0111,-0.0034,0.0112,0.0193,0.0245,0.0288,0.0406,0.0384,0.0372,0.0407,0.0488,0.0483,0.0479,0.0528,0.0527,0.0527,0,0,-0.0598,-0.0583,-0.0581,-0.0553,-0.0508,-0.0462,-0.0462,-0.0374,-0.0331,-0.0261,-0.0172,-0.0106,0.0062,0.0145,0.021,0.0221,0.0329,0.0277,0.0233,0.0306,0.0301,0.0298,0.0349,0.0353,0.029,0.029,0.0289,0,-0.0618,-0.0606,-0.0575,-0.0561,-0.0541,-0.0482,-0.0465,-0.0413,-0.0308,-0.0272,-0.0251,-0.0049,0.0039,0.0133,0.0129,0.0189,0.0252,0.0238,0.0282,0.0282,0.0283,0.0337,0.0344,0.0279,0.028,0.0281,0.0282,0,-0.0625,-0.0618,-0.0614,-0.0581,-0.0558,-0.0535,-0.0473,-0.0434,-0.0386,-0.0326,-0.0242,-0.014,-0.0015,0.0012,0.0067,0.0133,0.0177,0.0225,0.0282,0.0261,0.0322,0.0333,0.0263,0.0267,0.027,0.0273,0,0,-0.066,-0.0627,-0.0626,-0.0624,-0.0565,-0.0549,-0.0505,-0.045,-0.0419,-0.0334,-0.0285,-0.0181,-0.0133,-0.0051,0.0021,0.0083,0.009,0.0151,0.016,0.0147,0.0241,0.0236,0.0249,0.0133,0.0135,0.0136,0.026,0,-0.0675,-0.0674,-0.0642,-0.0634,-0.0627,-0.057,-0.0543,-0.0484,-0.0424,-0.036,-0.027,-0.0194,-0.0152,-0.0116,-0.0055,0.0074,0.012,0.0053,0.0317,0.0325,0.0277,0.0263,0.0244,0.0351,0.0272,0.0274,0.0276,0,-0.0686,-0.0691,-0.0691,-0.0677,-0.0667,-0.0652,-0.0606,-0.057,-0.0472,-0.0423,-0.0337,-0.0253,-0.015,-0.0124,0.0069,0.0026,0.0116,0.0202,0.021,0.0311,0.0343,0.038,0.0376,0.0296,0.0294,0.0293,0.0291,0,-0.0739,-0.0724,-0.0737,-0.0727,-0.0694,-0.0687,-0.0668,-0.059,-0.0562,-0.0458,-0.0415,-0.0279,-0.0197,-0.0064,0.0092,0.0092,0.0296,0.0325,0.0404,0.0404,0.0501,0.0507,0.0446,0.0445,0.0445,0.0445,0.0444,0,-0.0766,-0.0776,-0.0769,-0.0776,-0.08,-0.0751,-0.0749,-0.0704,-0.0627,-0.0578,-0.0457,-0.0376,-0.0175,-0.0036,0.009,0.0278,0.0297,0.0404,0.0443,0.0415,0.0411,0.0476,0.0478,0.0449,0.0448,0.0447,0.0447,0,-0.0806,-0.0798,-0.0826,-0.0822,-0.0827,-0.0847,-0.0826,-0.0817,-0.0729,-0.0657,-0.0624,-0.0429,-0.0227,-0.0052,0.0187,0.0285,0.0452,0.0502,0.0438,0.0466,0.0512,0.0501,0.0631,0.0632,0.0633,0.0633,0.0634,0,-0.0818,-0.0838,-0.0881,-0.0917,-0.0918,-0.0938,-0.0953,-0.0887,-0.0854,-0.0677,-0.0637,-0.0429,-0.0259,0.0065,0.0276,0.0494,0.0487,0.058,0.0579,0.051,0.0535,0.0523,0.0511,0.0604,0.0605,0.0605,0.0605,0,-0.0853,-0.0877,-0.0908,-0.0991,-0.103,-0.1061,-0.1056,-0.1038,-0.0925,-0.0829,-0.0644,-0.0492,-0.0156,0.0118,0.0376,0.0492,0.0544,0.0592,0.0573,0.0542,0.0491,0.0513,0.0502,0.0607,0.0607,0.0607,0.0607,0.0607,-0.0885,-0.0932,-0.0991,-0.1063,-0.112,-0.1152,-0.1157,-0.1106,-0.1035,-0.0842,-0.0688,-0.0426,-0.015,0.0253,0.0442,0.0608,0.0613,0.0654,0.0652,0.065,0.0607,0.0558,0.0678,0.0678,0.0679,0.0679,0.0679,0,-0.0917,-0.0977,-0.1057,-0.1144,-0.1213,-0.1216,-0.1203,-0.1161,-0.106,-0.0851,-0.0663,-0.0341,-0.003,0.0244,0.0533,0.0694,0.0682,0.07,0.0668,0.0664,0.0661,0.0617,0.0693,0.0694,0.0694,0.0695,0,0,-0.094,-0.1024,-0.1071,-0.1198,-0.1255,-0.1291,-0.1274,-0.1181,-0.1028,-0.0804,-0.0591,-0.0353,0.0004,0.0201,0.0415,0.0574,0.0565,0.0571,0.0542,0.0474,0.047,0.0618,0.0544,0,0,0,0,0]}],[{"header":{"parameterUnit":"m.s-1","parameterCategory":2,"la1":30.2991,"la2":30.254,"lo1":-89.0895,"lo2":-89.0444,"dy":0.0017,"dx":0.0017,"nx":28,"ny":28,"refTime":"2024-07-07T03:00:00:Z","depth":"4","parameterNumber":2,"parameterNumberName":"U-component_of_CURRENTS"},"data":[0,0,0,0,0,0,0,0,0,0,0,0,0,0,0,0,0,0,0,0,0,0,0,0,0,0,0,0,0,0,0,0,0,0,0,0,0,0,0,0,0,0,0,0,0,0,0,0,0,0,0,0,0,0,0,0,0,0,-0.1454,-0.1454,0,-0.1465,-0.1465,-0.1465,-0.1479,-0.148,-0.148,-0.1481,-0.1513,-0.1513,-0.1514,0,0,0,0,0,0,0,0,0,0,0,0,0,-0.143,-0.143,-0.1454,-0.1454,-0.1455,-0.1465,-0.1465,-0.1465,-0.1479,-0.148,-0.148,-0.1481,-0.1513,-0.1513,-0.1514,0,0,0,0,0,0,0,0,0,0,0,0,0,-0.1439,-0.143,-0.1454,-0.1464,-0.1465,-0.1465,-0.1465,-0.1465,-0.1479,-0.148,-0.148,-0.1481,-0.1513,-0.1513,-0.1514,-0.1507,0,0,-0.1516,-0.1517,0,0,0,0,0,0,0,0,-0.1438,-0.144,-0.1462,-0.1464,-0.1465,-0.1473,-0.1468,-0.1481,-0.1479,-0.1472,-0.1481,-0.1481,-0.1502,-0.1504,-0.1502,-0.1509,-0.151,-0.1516,-0.1517,-0.1517,-0.1517,0,0,0,0,0,0,0,-0.1438,-0.1439,-0.1457,-0.1463,-0.1464,-0.1463,-0.1465,-0.1471,-0.1483,-0.1473,-0.1474,-0.1478,-0.1503,-0.1501,-0.1503,-0.1511,-0.1516,-0.1517,-0.1518,-0.1518,-0.1546,-0.1546,0,0,0,0,0,0,-0.144,-0.1439,-0.1457,-0.1457,-0.1455,-0.1463,-0.1465,-0.1468,-0.1483,-0.1486,-0.1478,-0.1479,-0.15,-0.1502,-0.1504,-0.1563,-0.1517,-0.1518,-0.1518,-0.1546,-0.1546,-0.1546,0,0,0,0,0,0,-0.1439,-0.1441,-0.1456,-0.145,-0.1452,-0.1463,-0.1467,-0.1468,-0.1493,-0.1486,-0.1489,-0.1504,-0.15,-0.1503,-0.152,-0.1562,-0.1518,-0.1519,-0.1545,-0.1546,-0.1546,-0.1637,0,0,0,0,0,0,-0.1439,-0.1441,-0.1455,-0.145,-0.1452,-0.1469,-0.1466,-0.1468,-0.1494,-0.1496,-0.1509,-0.1511,-0.1501,-0.1518,-0.152,-0.1562,-0.152,-0.1545,-0.1545,-0.1546,-0.1634,-0.1641,-0.1647,0,0,0,0,0,-0.1438,-0.1451,-0.1455,-0.1458,-0.1467,-0.147,-0.1471,-0.1479,-0.1495,-0.1505,-0.151,-0.1512,-0.1523,-0.1519,-0.1521,-0.1564,-0.1545,-0.1545,-0.1546,-0.1631,-0.164,-0.1647,0,0,0,0,0,0,-0.1448,-0.1453,-0.1458,-0.1473,-0.1478,-0.1473,-0.1489,-0.1497,-0.1509,-0.1522,-0.1516,-0.1518,-0.1545,-0.1533,-0.1529,-0.1568,-0.1534,-0.1535,-0.1598,-0.1606,-0.1612,-0.1622,-0.152,0,0,0,0,0,-0.1456,-0.1468,-0.147,-0.1484,-0.1491,-0.1497,-0.1505,-0.1512,-0.1518,-0.1526,-0.1533,-0.1538,-0.1544,-0.156,-0.1553,-0.1582,-0.1557,-0.1607,-0.1614,-0.1619,-0.1625,-0.1611,-0.1618,-0.1548,-0.1548,-0.1548,0,0,-0.1464,-0.147,-0.1477,-0.1487,-0.1495,-0.1512,-0.1504,-0.1525,-0.1549,-0.1527,-0.1567,-0.156,-0.1552,-0.1577,-0.159,-0.1581,-0.1625,-0.162,-0.1626,-0.1628,-0.1613,-0.162,-0.1626,-0.1549,-0.1549,-0.1549,0,0,-0.1474,-0.1493,-0.1503,-0.1516,-0.1533,-0.1539,-0.1554,-0.1563,-0.1582,-0.1607,-0.1599,-0.1614,-0.1626,-0.163,-0.1634,-0.1671,-0.1651,-0.1676,-0.1733,-0.1721,-0.1727,-0.1732,-0.171,-0.1712,-0.169,-0.169,-0.169,0,-0.1483,-0.1499,-0.1506,-0.1523,-0.1546,-0.1558,-0.1582,-0.1601,-0.1616,-0.1635,-0.163,-0.165,-0.1651,-0.1686,-0.1703,-0.1691,-0.1673,-0.1713,-0.1731,-0.1736,-0.1739,-0.1716,-0.1717,-0.1694,-0.1694,-0.1693,-0.1693,0,-0.1492,-0.1521,-0.1533,-0.1562,-0.1585,-0.161,-0.1637,-0.1666,-0.1693,-0.1704,-0.174,-0.1732,-0.1741,-0.1754,-0.1748,-0.1784,-0.1759,-0.1736,-0.1719,-0.1752,-0.1725,-0.1725,-0.1701,-0.1699,-0.1698,-0.1697,0,0,-0.1465,-0.1527,-0.1533,-0.1565,-0.1614,-0.1632,-0.1687,-0.1727,-0.1763,-0.1785,-0.1817,-0.1846,-0.1839,-0.1841,-0.1836,-0.1844,-0.1863,-0.1817,-0.1814,-0.1808,-0.1832,-0.1705,-0.1692,-0.1849,-0.1849,-0.1849,-0.1804,0,-0.1471,-0.1517,-0.1548,-0.1608,-0.164,-0.1686,-0.1734,-0.1778,-0.1809,-0.184,-0.1855,-0.1874,-0.1874,-0.1882,-0.1894,-0.1857,-0.1867,-0.1877,-0.1789,-0.1786,-0.1679,-0.1689,-0.1851,-0.1803,-0.1803,-0.1803,-0.1803,0,-0.1461,-0.1501,-0.1557,-0.1645,-0.1664,-0.1704,-0.1785,-0.1824,-0.1875,-0.1899,-0.1927,-0.1923,-0.1945,-0.1928,-0.1909,-0.1916,-0.189,-0.1866,-0.1863,-0.1711,-0.1658,-0.1759,-0.1802,-0.1802,-0.1802,-0.1802,-0.1803,0,-0.1429,-0.1508,-0.156,-0.1589,-0.1681,-0.1725,-0.1775,-0.184,-0.1874,-0.1925,-0.194,-0.1962,-0.1955,-0.1938,-0.1902,-0.1905,-0.1862,-0.1846,-0.1711,-0.1702,-0.1794,-0.1788,-0.1838,-0.1838,-0.1838,-0.1838,-0.1839,0,-0.1412,-0.1459,-0.1554,-0.1583,-0.165,-0.1718,-0.1782,-0.1834,-0.1892,-0.1908,-0.1959,-0.1952,-0.1958,-0.1933,-0.1905,-0.1796,-0.1859,-0.1716,-0.1679,-0.1831,-0.1831,-0.1793,-0.1789,-0.1837,-0.1837,-0.1837,-0.1838,0,-0.136,-0.1424,-0.1491,-0.1599,-0.1634,-0.1678,-0.1778,-0.1804,-0.1879,-0.1895,-0.1908,-0.1939,-0.1882,-0.1877,-0.1829,-0.1769,-0.17,-0.1657,-0.182,-0.1794,-0.155,-0.1551,-0.148,-0.1475,-0.147,-0.1467,-0.1464,0,-0.1333,-0.1363,-0.1483,-0.1513,-0.1563,-0.164,-0.1676,-0.1779,-0.1792,-0.1858,-0.1835,-0.1828,-0.1824,-0.1657,-0.1669,-0.1593,-0.1581,-0.1552,-0.1556,-0.1541,-0.1513,-0.152,-0.1526,-0.1457,-0.1456,-0.1455,-0.1454,0,-0.1282,-0.1334,-0.1382,-0.144,-0.149,-0.1543,-0.16,-0.1609,-0.1691,-0.1776,-0.1714,-0.1674,-0.1604,-0.1547,-0.1504,-0.1458,-0.1569,-0.1508,-0.1516,-0.1519,-0.1513,-0.1491,-0.1502,-0.144,-0.1442,-0.1443,-0.1444,0,-0.1237,-0.1252,-0.1308,-0.1343,-0.1401,-0.1408,-0.1471,-0.1473,-0.1506,-0.1584,-0.1551,-0.1547,-0.1577,-0.1474,-0.1434,-0.1372,-0.1342,-0.1313,-0.1331,-0.1348,-0.1323,-0.1297,-0.1119,0,0,0,0,0,-0.1186,-0.1179,-0.1202,-0.1226,-0.1272,-0.1295,-0.1388,-0.1445,-0.1531,-0.1444,-0.1498,-0.1427,-0.1346,-0.1348,-0.1248,-0.1354,-0.1347,-0.1233,-0.1325,-0.1359,-0.1376,-0.1358,0,0,0,0,0,0,-0.1145,-0.1169,-0.1161,-0.1107,-0.1088,-0.1118,-0.1172,-0.124,-0.1208,-0.1302,-0.1259,-0.1326,-0.126,-0.1353,-0.1204,-0.1203,-0.1233,-0.1241,-0.1237,-0.135,-0.1365,-0.1378,-0.1365,0,0,0,0,0]},{"header":{"parameterUnit":"m.s-1","parameterCategory":2,"la1":30.2991,"la2":30.254,"lo1":-89.0895,"lo2":-89.0444,"dy":0.0017,"dx":0.0017,"nx":28,"ny":28,"refTime":"2024-07-07T03:00:00:Z","depth":"4","parameterNumber":3,"parameterNumberName":"V-component_of_CURRENTS"},"data":[0,0,0,0,0,0,0,0,0,0,0,0,0,0,0,0,0,0,0,0,0,0,0,0,0,0,0,0,0,0,0,0,0,0,0,0,0,0,0,0,0,0,0,0,0,0,0,0,0,0,0,0,0,0,0,0,0,0,-0.0358,-0.0358,0,-0.0328,-0.0327,-0.0327,-0.0307,-0.0307,-0.0307,-0.0307,-0.023,-0.0228,-0.0226,0,0,0,0,0,0,0,0,0,0,0,0,0,-0.0379,-0.0379,-0.0358,-0.0358,-0.0358,-0.0328,-0.0327,-0.0327,-0.0307,-0.0307,-0.0307,-0.0307,-0.0231,-0.0228,-0.0226,0,0,0,0,0,0,0,0,0,0,0,0,0,-0.036,-0.0379,-0.0358,-0.0346,-0.0344,-0.0328,-0.0327,-0.0326,-0.0307,-0.0307,-0.0307,-0.0307,-0.0231,-0.0228,-0.0225,-0.0205,0,0,-0.0216,-0.0214,0,0,0,0,0,0,0,0,-0.0361,-0.0359,-0.0348,-0.0346,-0.0345,-0.0323,-0.0306,-0.0284,-0.0307,-0.0319,-0.0307,-0.0307,-0.0258,-0.0252,-0.0245,-0.0202,-0.0198,-0.0215,-0.0214,-0.0212,-0.0211,0,0,0,0,0,0,0,-0.0362,-0.036,-0.0344,-0.0348,-0.0346,-0.0334,-0.0332,-0.0302,-0.0287,-0.0318,-0.0317,-0.0316,-0.0256,-0.0248,-0.0243,-0.0197,-0.0216,-0.0213,-0.0211,-0.021,-0.0149,-0.0149,0,0,0,0,0,0,-0.037,-0.0361,-0.0346,-0.0344,-0.0355,-0.0334,-0.0331,-0.0328,-0.0288,-0.0283,-0.0316,-0.0316,-0.0253,-0.0246,-0.024,-0.02,-0.0212,-0.0209,-0.0208,-0.0149,-0.0149,-0.0149,0,0,0,0,0,0,-0.0371,-0.0369,-0.0347,-0.0353,-0.035,-0.0334,-0.0331,-0.0328,-0.0324,-0.0287,-0.0281,-0.0317,-0.0253,-0.0244,-0.0217,-0.0197,-0.0208,-0.0205,-0.0148,-0.0149,-0.0149,-0.0128,0,0,0,0,0,0,-0.0372,-0.0369,-0.0379,-0.0354,-0.035,-0.0343,-0.0331,-0.0327,-0.0324,-0.0323,-0.0285,-0.0278,-0.0252,-0.0222,-0.0214,-0.0193,-0.0203,-0.0148,-0.0149,-0.0149,-0.0129,-0.0128,-0.0128,0,0,0,0,0,-0.0372,-0.0381,-0.038,-0.0378,-0.0361,-0.0344,-0.0341,-0.0328,-0.0324,-0.0325,-0.0298,-0.028,-0.022,-0.0219,-0.021,-0.0188,-0.0148,-0.0148,-0.0149,-0.0129,-0.0128,-0.0128,0,0,0,0,0,0,-0.0393,-0.038,-0.0377,-0.0382,-0.0369,-0.0341,-0.0345,-0.0333,-0.0313,-0.0311,-0.0276,-0.0267,-0.0239,-0.0224,-0.0225,-0.0177,-0.0183,-0.0182,-0.0171,-0.017,-0.017,-0.0169,-0.02,0,0,0,0,0,-0.0404,-0.041,-0.0389,-0.0395,-0.039,-0.0369,-0.0365,-0.0351,-0.0328,-0.032,-0.0292,-0.0264,-0.0234,-0.0212,-0.0191,-0.0156,-0.0133,-0.0141,-0.0141,-0.014,-0.0136,-0.0073,-0.0065,-0.0151,-0.0151,-0.0151,0,0,-0.0415,-0.0409,-0.0413,-0.0402,-0.0391,-0.0379,-0.0366,-0.0357,-0.034,-0.0313,-0.0287,-0.0264,-0.0229,-0.0194,-0.018,-0.0175,-0.0108,-0.0141,-0.014,-0.0137,-0.0072,-0.0063,-0.0055,-0.0152,-0.0151,-0.0151,0,0,-0.0432,-0.0433,-0.044,-0.0428,-0.0414,-0.0395,-0.0395,-0.0367,-0.0351,-0.0324,-0.0299,-0.026,-0.0227,-0.0181,-0.0157,-0.0141,-0.0115,-0.0147,-0.0125,-0.0063,-0.0055,-0.0047,-0.0021,-0.0011,-0.0136,-0.0136,-0.0136,0,-0.0448,-0.0449,-0.0439,-0.0435,-0.0427,-0.0404,-0.0397,-0.0372,-0.0338,-0.0317,-0.032,-0.0245,-0.0213,-0.0144,-0.014,-0.0133,-0.0114,-0.0125,-0.0059,-0.0051,-0.0043,-0.0018,-0.0007,-0.0135,-0.0135,-0.0135,-0.0135,0,-0.0458,-0.0461,-0.0462,-0.045,-0.0439,-0.0431,-0.0394,-0.0377,-0.0357,-0.0325,-0.0271,-0.0222,-0.0177,-0.0156,-0.0139,-0.0069,-0.008,-0.007,-0.0054,-0.0032,-0.0009,0.0002,-0.0133,-0.0134,-0.0134,-0.0134,0,0,-0.0486,-0.0474,-0.0476,-0.0476,-0.0445,-0.0439,-0.0405,-0.0365,-0.0343,-0.0294,-0.0255,-0.0182,-0.0158,-0.0131,-0.0094,-0.0028,0.0042,-0.0029,-0.0026,0.0008,0.0153,0.0117,0.0125,0.0066,0.0068,0.007,0.0142,0,-0.0498,-0.0505,-0.0486,-0.0485,-0.0483,-0.0447,-0.0422,-0.038,-0.0339,-0.0296,-0.0216,-0.0176,-0.0146,-0.0127,-0.0052,0.0012,0.0074,0.002,0.0116,0.0118,0.0095,0.0138,0.0078,0.015,0.0153,0.0155,0.0156,0,-0.0509,-0.0516,-0.0522,-0.051,-0.0505,-0.0498,-0.0458,-0.0432,-0.0352,-0.0318,-0.0243,-0.0196,-0.0096,-0.0084,0.0066,0.0026,0.0086,0.0144,0.0148,0.0117,0.0104,0.0127,0.0176,0.0175,0.0173,0.0172,0.0171,0,-0.0541,-0.0538,-0.0551,-0.0546,-0.0524,-0.052,-0.0507,-0.0443,-0.042,-0.0335,-0.0307,-0.0187,-0.0134,-0.0026,0.0079,0.0074,0.0232,0.0242,0.0271,0.0267,0.0269,0.026,0.0353,0.0353,0.0352,0.0352,0.0352,0,-0.0554,-0.0567,-0.0575,-0.0583,-0.0605,-0.0567,-0.0566,-0.0529,-0.0467,-0.0433,-0.0332,-0.0272,-0.0115,-0.0013,0.0081,0.0202,0.0235,0.0283,0.0296,0.027,0.0261,0.0276,0.0266,0.0355,0.0354,0.0354,0.0353,0,-0.0576,-0.0581,-0.0608,-0.0613,-0.0624,-0.0642,-0.0634,-0.0625,-0.0554,-0.0505,-0.0482,-0.0328,-0.0184,-0.0044,0.0136,0.0196,0.0316,0.0348,0.0287,0.0293,0.0307,0.0297,0.0397,0.0397,0.0397,0.0396,0.0396,0,-0.0582,-0.0601,-0.0653,-0.069,-0.07,-0.0722,-0.074,-0.0686,-0.0662,-0.0534,-0.0508,-0.0356,-0.0248,-0.002,0.0125,0.03,0.0322,0.0364,0.0366,0.0315,0.0318,0.0308,0.0299,0.0396,0.0396,0.0395,0.0395,0,-0.0599,-0.0631,-0.0662,-0.0746,-0.079,-0.0825,-0.0832,-0.0814,-0.0729,-0.067,-0.0516,-0.0373,-0.0207,-0.002,0.0109,0.0236,0.0329,0.0361,0.0363,0.0366,0.0314,0.0315,0.0306,0.0394,0.0394,0.0395,0.0395,0,-0.0624,-0.0663,-0.0724,-0.0792,-0.0861,-0.0899,-0.0894,-0.084,-0.0798,-0.0637,-0.0588,-0.0383,-0.025,-0.0052,0.0069,0.0186,0.0222,0.0245,0.0254,0.0256,0.0192,0.0104,0.0144,0,0,0,0,0,-0.0639,-0.0693,-0.0764,-0.0844,-0.0914,-0.0945,-0.0942,-0.0912,-0.0823,-0.0728,-0.0648,-0.0487,-0.0249,-0.0127,-0.0015,0.0043,0.0216,0.0174,0.0239,0.0388,0.0389,0.0335,0,0,0,0,0,0,-0.0655,-0.0727,-0.0767,-0.0871,-0.0929,-0.0994,-0.0991,-0.0933,-0.0852,-0.074,-0.0606,-0.0493,-0.0261,-0.0322,-0.0024,0.0017,0.0066,0.0302,0.0303,0.0387,0.0389,0.039,0.0334,0,0,0,0,0]}]]